Location: Unspecified
(0.0000°N, 0.0000°E)
Time: 12:41:30
(UTC+00:00)

Tiros 1 despin weight - Visible Passes

Search period start: 26 November 2014 00:00
Search period end: 06 December 2014 00:00
Orbit: 600 x 651 km, 48.2° (Epoch: 26 November)

Date Brightness Start Highest point End Pass type
(mag) Time Alt. Az. Time Alt. Az. Time Alt. Az.
26 Nov ? 03:55:23 61° NE 03:55:25 61° NE 04:00:00 10° SE visible
27 Nov ? 04:14:03 45° WSW 04:14:16 45° SW 04:18:42 10° SSE visible
28 Nov ? 02:55:23 13° ESE 02:55:23 13° ESE 02:55:54 10° ESE visible
28 Nov ? 04:32:38 16° WSW 04:33:08 17° SW 04:36:07 10° S visible
29 Nov ? 03:13:53 18° SSE 03:13:53 18° SSE 03:15:04 10° SSE visible
30 Nov ? 03:32:18 14° S 03:32:18 14° S 03:33:08 10° S visible
